Location: Brusselsch Zeekanaal
(50.8667°N, 4.3667°E)
Time: 14:41:03
(UTC+00:00)

Cosmos 2333 Rocket - Visible Passes

Search period start: 14 February 2026 00:00
Search period end: 24 February 2026 00:00
Orbit: 839 x 864 km, 70.8° (Epoch: 13 February)

Date Brightness Start Highest point End Pass type
(mag) Time Alt. Az. Time Alt. Az. Time Alt. Az.
14 Feb 4.1 05:38:14 10° S 05:43:22 35° ESE 05:48:30 10° NE visible
15 Feb 4.0 05:26:00 10° S 05:31:08 35° ESE 05:36:16 10° NE visible
16 Feb 4.0 05:13:46 10° S 05:18:54 35° ESE 05:24:02 10° NE visible
17 Feb 3.9 05:01:31 10° S 05:06:40 35° ESE 05:11:47 10° NE visible
18 Feb 3.9 04:49:17 10° S 04:54:25 35° ESE 04:59:34 10° NE visible
19 Feb 3.8 04:37:03 10° S 04:42:11 35° ESE 04:47:19 10° NE visible
20 Feb 3.8 04:24:49 10° S 04:29:56 35° ESE 04:35:05 10° NE visible
20 Feb 2.5 06:08:30 10° SW 06:14:04 50° NW 06:19:40 10° NNE visible
21 Feb 3.7 04:12:34 10° S 04:17:42 35° ESE 04:22:50 10° NE visible
21 Feb 2.5 05:56:16 10° SW 06:01:51 50° NW 06:07:25 10° NNE visible
22 Feb 3.7 04:00:20 10° S 04:05:28 35° ESE 04:10:36 10° NE visible
22 Feb 2.5 05:44:02 10° SW 05:49:36 50° NW 05:55:11 10° NNE visible
23 Feb 3.6 03:48:42 13° SSE 03:53:14 35° ESE 03:58:21 10° NE visible
23 Feb 2.5 05:31:47 10° SW 05:37:22 50° NW 05:42:56 10° NNE visible
